,,,PA_Meas_PMT16A,,PR_Meas_QMR101_102,,RH_Meas_QMH101,,SR_Meas_QMS101,,TA_Meas_QMH101,,GenWind,,GenWind,
date,time,status,PA,status,PR,status,RH,status,SR,status,TA,status,DirAvg,status,SpdAvg,
2009-02-16, 00:00:05,VALID,1001.94,VALID,0,VALID,92.1277,VALID,0,VALID,22.6299,VALID,157,VALID,0.634766,
2009-02-16, 00:01:05,VALID,1001.9,VALID,0,VALID,92.4023,VALID,0,VALID,22.6689,VALID,158,VALID,0.696875,
2009-02-16, 00:02:05,VALID,1001.89,VALID,0,VALID,91.8683,VALID,0,VALID,22.7079,VALID,160,VALID,0.923828,
2009-02-16, 00:03:05,VALID,1001.93,VALID,0,VALID,91.4181,VALID,0.112286,VALID,22.6884,VALID,176,VALID,1.05742,
2009-02-16, 00:04:05,VALID,1001.89,VALID,0,VALID,91.0977,VALID,0,VALID,22.6672,VALID,180,VALID,1.1082,
2009-02-16, 00:05:05,VALID,1001.91,VALID,0,VALID,91.0519,VALID,0,VALID,22.7274,VALID,186,VALID,0.669922,
2009-02-16, 00:06:05,VALID,1001.88,VALID,0,VALID,90.8001,VALID,0,VALID,22.7469,VALID,188,VALID,0.415625,
2009-02-16, 00:07:05,VALID,1001.9,VALID,0,VALID,90.556,VALID,0,VALID,22.7469,VALID,187,VALID,0.608594,
2009-02-16, 00:08:05,VALID,1001.88,VALID,0,VALID,90.7085,VALID,0,VALID,22.7664,VALID,187,VALID,0.365234,
2009-02-16, 00:09:05,VALID,1001.88,VALID,0,VALID,90.5102,VALID,0,VALID,22.7664,VALID,187,VALID,0.426172,
2009-02-16, 00:10:05,VALID,1001.84,VALID,0,VALID,90.4644,VALID,0,VALID,22.7664,VALID,187,VALID,0.651172,
2009-02-16, 00:11:05,VALID,1001.87,VALID,0,VALID,90.3576,VALID,0,VALID,22.7452,VALID,166,VALID,0.443359,
2009-02-16, 00:12:05,VALID,1001.86,VALID,0,VALID,90.3271,VALID,0,VALID,22.7664,VALID,193,VALID,0.479688,
2009-02-16, 00:13:05,VALID,1001.86,VALID,0,VALID,90.3118,VALID,0,VALID,22.8055,VALID,193,VALID,0.225391,
2009-02-16, 00:14:05,VALID,1001.81,VALID,0,VALID,90.6704,VALID,0,VALID,22.825,VALID,193,VALID,0.275391,
2009-02-16, 00:15:05,VALID,1001.83,VALID,0,VALID,90.4263,VALID,0,VALID,22.8055,VALID,193,VALID,0.103516,
2009-02-16, 00:16:05,VALID,1001.79,VALID,0,VALID,90.5254,VALID,0,VALID,22.8055,VALID,193,VALID,0,
2009-02-16, 00:17:05,VALID,1001.78,VALID,0,VALID,90.5788,VALID,0.112286,VALID,22.786,VALID,193,VALID,0.102344,
2009-02-16, 00:18:05,VALID,1001.77,VALID,0,VALID,90.5026,VALID,0,VALID,22.7647,VALID,193,VALID,0.213281,
2009-02-16, 00:19:05,VALID,1001.71,VALID,0,VALID,90.3728,VALID,0,VALID,22.7664,VALID,192,VALID,0.411719,
2009-02-16, 00:20:05,VALID,1001.69,VALID,0,VALID,90.1897,VALID,0,VALID,22.7469,VALID,192,VALID,0.216406,
2009-02-16, 00:21:05,VALID,1001.69,VALID,0,VALID,90.5941,VALID,0,VALID,22.7469,VALID,191,VALID,0.0886719,
2009-02-16, 00:22:05,VALID,1001.66,VALID,0,VALID,90.7238,VALID,0,VALID,22.7257,VALID,191,VALID,0.0015625,
2009-02-16, 00:23:05,VALID,1001.65,VALID,0,VALID,91.2426,VALID,0,VALID,22.786,VALID,191,VALID,0.127734,
2009-02-16, 00:24:05,VALID,1001.61,VALID,0,VALID,91.5707,VALID,0,VALID,22.786,VALID,191,VALID,0.355469,
2009-02-16, 00:25:05,VALID,1001.63,VALID,0,VALID,91.792,VALID,0.112286,VALID,22.8055,VALID,191,VALID,0.240234,
2009-02-16, 00:26:05,VALID,1001.6,VALID,0,VALID,91.8072,VALID,0,VALID,22.7664,VALID,191,VALID,0.241797,
2009-02-16, 00:27:05,VALID,1001.58,VALID,0,VALID,92.0437,VALID,0,VALID,22.7469,VALID,191,VALID,0.150391,
2009-02-16, 00:28:05,VALID,1001.6,VALID,0,VALID,92.3184,VALID,0,VALID,22.7469,VALID,191,VALID,0.1875,
2009-02-16, 00:29:05,VALID,1001.54,VALID,0,VALID,92.265,VALID,0,VALID,22.7079,VALID,191,VALID,0.242969,
2009-02-16, 00:30:05,VALID,1001.56,VALID,0,VALID,92.4634,VALID,0,VALID,22.6884,VALID,191,VALID,0.148828,
2009-02-16, 00:31:05,VALID,1001.54,VALID,0,VALID,92.5931,VALID,0,VALID,22.6884,VALID,191,VALID,0.199609,
2009-02-16, 00:32:05,VALID,1001.55,VALID,0,VALID,92.6694,VALID,0,VALID,22.6689,VALID,191,VALID,0.278516,
2009-02-16, 00:33:05,VALID,1001.5,VALID,0,VALID,92.8983,VALID,0,VALID,22.6494,VALID,191,VALID,0.522266,
2009-02-16, 00:34:05,VALID,1001.47,VALID,0,VALID,92.9135,VALID,0,VALID,22.6494,VALID,57,VALID,0.471094,
2009-02-16, 00:35:05,VALID,1001.46,VALID,0,VALID,92.9288,VALID,0,VALID,22.6299,VALID,57,VALID,0.3625,
2009-02-16, 00:36:05,VALID,1001.47,VALID,0,VALID,92.8983,VALID,0,VALID,22.6104,VALID,57,VALID,0.369922,
2009-02-16, 00:37:05,VALID,1001.44,VALID,0,VALID,92.9211,VALID,0,VALID,22.5714,VALID,55,VALID,0.425391,
2009-02-16, 00:38:05,VALID,1001.4,VALID,0,VALID,92.8601,VALID,0,VALID,22.5323,VALID,54,VALID,0.460938,
2009-02-16, 00:39:05,VALID,1001.4,VALID,0,VALID,93.1119,VALID,0,VALID,22.5323,VALID,54,VALID,0.509375,
2009-02-16, 00:40:05,VALID,1001.32,VALID,0,VALID,93.0814,VALID,0,VALID,22.5323,VALID,54,VALID,0.597266,
2009-02-16, 00:41:05,VALID,1001.33,VALID,0,VALID,93.1195,VALID,0,VALID,22.5323,VALID,61,VALID,0.424219,
2009-02-16, 00:42:05,VALID,1001.34,VALID,0,VALID,93.1805,VALID,0,VALID,22.5323,VALID,61,VALID,0.342578,
2009-02-16, 00:43:05,VALID,1001.32,VALID,0,VALID,93.2492,VALID,0,VALID,22.5323,VALID,61,VALID,0.104297,
2009-02-16, 00:44:05,VALID,1001.31,VALID,0,VALID,93.2874,VALID,0,VALID,22.5519,VALID,61,VALID,0.119531,
2009-02-16, 00:45:05,VALID,1001.32,VALID,0,VALID,93.3408,VALID,0,VALID,22.5519,VALID,61,VALID,0.174609,
2009-02-16, 00:46:05,VALID,1001.34,VALID,0,VALID,93.4018,VALID,0,VALID,22.5714,VALID,61,VALID,0.375,
2009-02-16, 00:47:05,VALID,1001.34,VALID,0,VALID,93.3866,VALID,0,VALID,22.5714,VALID,43,VALID,0.632813,
2009-02-16, 00:48:05,VALID,1001.32,VALID,0,VALID,93.4476,VALID,0,VALID,22.5714,VALID,32,VALID,0.841797,
2009-02-16, 00:49:05,VALID,1001.31,VALID,0,VALID,93.4857,VALID,0,VALID,22.5909,VALID,29,VALID,0.714453,
2009-02-16, 00:50:05,VALID,1001.34,VALID,0,VALID,93.562,VALID,0,VALID,22.5696,VALID,18,VALID,0.552734,
2009-02-16, 00:51:05,VALID,1001.32,VALID,0,VALID,93.3255,VALID,0,VALID,22.5909,VALID,18,VALID,0.684375,
2009-02-16, 00:52:05,VALID,1001.31,VALID,0,VALID,92.9974,VALID,0,VALID,22.5111,VALID,19,VALID,0.766406,
2009-02-16, 00:53:05,VALID,1001.32,VALID,0,VALID,92.6541,VALID,0,VALID,22.4933,VALID,19,VALID,0.792188,
2009-02-16, 00:54:05,VALID,1001.31,VALID,0,VALID,92.5702,VALID,0,VALID,22.495,VALID,19,VALID,0.639844,
2009-02-16, 00:55:05,VALID,1001.3,VALID,0,VALID,92.6007,VALID,0,VALID,22.4738,VALID,19,VALID,0.658594,
2009-02-16, 00:56:05,VALID,1001.32,VALID,0,VALID,92.4863,VALID,0,VALID,22.4543,VALID,19,VALID,0.801172,
2009-02-16, 00:57:05,VALID,1001.34,VALID,0,VALID,92.0743,VALID,0,VALID,22.4543,VALID,20,VALID,0.794531,
2009-02-16, 00:58:05,VALID,1001.33,VALID,0,VALID,91.647,VALID,0,VALID,22.4153,VALID,27,VALID,0.861719,
2009-02-16, 00:59:05,VALID,1001.29,VALID,0,VALID,91.9217,VALID,0,VALID,22.4153,VALID,27,VALID,0.588281,
2009-02-16, 01:00:05,VALID,1001.34,VALID,0,VALID,91.9293,VALID,0,VALID,22.4153,VALID,27,VALID,0.354297,
2009-02-16, 01:01:05,VALID,1001.32,VALID,0,VALID,91.9522,VALID,0,VALID,22.3958,VALID,27,VALID,0,
2009-02-16, 01:02:05,VALID,1001.29,VALID,0,VALID,92.0132,VALID,0,VALID,22.3958,VALID,27,VALID,0,
2009-02-16, 01:03:05,VALID,1001.28,VALID,0,VALID,92.0895,VALID,0,VALID,22.3958,VALID,27,VALID,0.312109,
2009-02-16, 01:04:05,VALID,1001.28,VALID,0,VALID,92.0743,VALID,0,VALID,22.3958,VALID,27,VALID,0.646094,
2009-02-16, 01:05:05,VALID,1001.27,VALID,0,VALID,92.0132,VALID,0,VALID,22.3958,VALID,27,VALID,0.747266,
2009-02-16, 01:06:05,VALID,1001.27,VALID,0,VALID,91.9064,VALID,0,VALID,22.3763,VALID,27,VALID,0.549219,
2009-02-16, 01:07:05,VALID,1001.24,VALID,0,VALID,91.6775,VALID,0,VALID,22.3763,VALID,27,VALID,0.340625,
2009-02-16, 01:08:05,VALID,1001.24,VALID,0,VALID,92.0056,VALID,0,VALID,22.3551,VALID,27,VALID,0.279297,
2009-02-16, 01:09:05,VALID,1001.24,VALID,0,VALID,92.0514,VALID,0,VALID,22.3958,VALID,27,VALID,0.525391,
2009-02-16, 01:10:05,VALID,1001.26,VALID,0,VALID,91.9903,VALID,0,VALID,22.3958,VALID,27,VALID,0.569922,
2009-02-16, 01:11:05,VALID,1001.24,VALID,0,VALID,92.0132,VALID,0,VALID,22.3763,VALID,27,VALID,0.595703,
2009-02-16, 01:12:05,VALID,1001.26,VALID,0,VALID,92.2345,VALID,0,VALID,22.417,VALID,27,VALID,0.573047,
2009-02-16, 01:13:05,VALID,1001.22,VALID,0,VALID,92.1506,VALID,0,VALID,22.3958,VALID,27,VALID,0.485156,
2009-02-16, 01:14:05,VALID,1001.22,VALID,0,VALID,92.4023,VALID,0,VALID,22.3958,VALID,27,VALID,0.253125,
2009-02-16, 01:15:05,VALID,1001.2,VALID,0,VALID,92.5244,VALID,0,VALID,22.4153,VALID,27,VALID,0.0546875,
2009-02-16, 01:16:05,VALID,1001.18,VALID,0,VALID,92.532,VALID,0,VALID,22.4348,VALID,27,VALID,0,
2009-02-16, 01:17:05,VALID,1001.19,VALID,0,VALID,92.5397,VALID,0,VALID,22.4136,VALID,27,VALID,0,
2009-02-16, 01:18:05,VALID,1001.19,VALID,0,VALID,92.6541,VALID,0,VALID,22.4153,VALID,27,VALID,0.00078125,
2009-02-16, 01:19:05,VALID,1001.18,VALID,0,VALID,92.6007,VALID,0,VALID,22.4153,VALID,27,VALID,0.396094,
2009-02-16, 01:20:05,VALID,1001.18,VALID,0,VALID,92.3947,VALID,0,VALID,22.4153,VALID,27,VALID,0.540234,
2009-02-16, 01:21:05,VALID,1001.16,VALID,0,VALID,92.1887,VALID,0,VALID,22.3763,VALID,27,VALID,0.525391,
2009-02-16, 01:22:05,VALID,1001.16,VALID,0,VALID,92.2268,VALID,0,VALID,22.3356,VALID,27,VALID,0.753125,
2009-02-16, 01:23:05,VALID,1001.14,VALID,0,VALID,92.326,VALID,0,VALID,22.3763,VALID,30,VALID,0.972266,
2009-02-16, 01:24:05,VALID,1001.14,VALID,0,VALID,92.3413,VALID,0,VALID,22.3568,VALID,40,VALID,1.15859,
2009-02-16, 01:25:05,VALID,1001.13,VALID,0,VALID,92.2879,VALID,0,VALID,22.3568,VALID,33,VALID,1.03516,
2009-02-16, 01:26:05,VALID,1001.14,VALID,0,VALID,92.41,VALID,0,VALID,22.3568,VALID,21,VALID,0.751172,
2009-02-16, 01:27:05,VALID,1001.13,VALID,0,VALID,92.3794,VALID,0,VALID,22.3373,VALID,9,VALID,0.680469,
2009-02-16, 01:28:05,VALID,1001.1,VALID,0,VALID,92.3489,VALID,0,VALID,22.3373,VALID,8,VALID,0.341406,
2009-02-16, 01:29:05,VALID,1001.06,VALID,0,VALID,92.3108,VALID,0,VALID,22.2983,VALID,8,VALID,0.148047,
2009-02-16, 01:30:05,VALID,1001.01,VALID,0,VALID,92.3108,VALID,0,VALID,22.2788,VALID,8,VALID,0.00117188,
2009-02-16, 01:31:05,VALID,1001.05,VALID,0,VALID,92.2497,VALID,0,VALID,22.2592,VALID,8,VALID,0.321484,
2009-02-16, 01:32:05,VALID,1001.06,VALID,0,VALID,92.1048,VALID,0,VALID,22.2592,VALID,8,VALID,0.367578,
2009-02-16, 01:33:05,VALID,1001.03,VALID,0,VALID,92.0514,VALID,0,VALID,22.2397,VALID,9,VALID,0.537109,
2009-02-16, 01:34:05,VALID,1001.04,VALID,0,VALID,92.0209,VALID,0,VALID,22.2609,VALID,21,VALID,0.465234,
2009-02-16, 01:35:05,VALID,1001.07,VALID,0,VALID,92.1048,VALID,0,VALID,22.2592,VALID,21,VALID,0.437109,
2009-02-16, 01:36:05,VALID,1001.06,VALID,0,VALID,92.204,VALID,0,VALID,22.2381,VALID,21,VALID,0.173828,
2009-02-16, 01:37:05,VALID,1001.08,VALID,0,VALID,92.1963,VALID,0,VALID,22.2592,VALID,21,VALID,0.0488281,
2009-02-16, 01:38:05,VALID,1001.06,VALID,0,VALID,92.3337,VALID,0,VALID,22.2788,VALID,21,VALID,0.096875,
2009-02-16, 01:39:05,VALID,1001.05,VALID,0,VALID,92.41,VALID,0,VALID,22.2592,VALID,21,VALID,0.364453,
2009-02-16, 01:40:05,VALID,1001.02,VALID,0,VALID,92.3718,VALID,0,VALID,22.2576,VALID,22,VALID,0.578906,
2009-02-16, 01:41:05,VALID,1001,VALID,0,VALID,92.3642,VALID,0,VALID,22.2576,VALID,22,VALID,0.646484,
2009-02-16, 01:42:05,VALID,1000.99,VALID,0,VALID,92.6236,VALID,0,VALID,22.2983,VALID,50,VALID,0.595703,
2009-02-16, 01:43:05,VALID,1000.96,VALID,0,VALID,92.7838,VALID,0,VALID,22.3178,VALID,50,VALID,0.302734,
2009-02-16, 01:44:05,VALID,1000.94,VALID,0,VALID,92.8067,VALID,0,VALID,22.3178,VALID,50,VALID,0.107422,
2009-02-16, 01:45:05,VALID,1000.96,VALID,0,VALID,92.8754,VALID,0,VALID,22.3178,VALID,50,VALID,0,
2009-02-16, 01:46:05,VALID,1000.93,VALID,0,VALID,92.8754,VALID,0,VALID,22.3161,VALID,50,VALID,0,
2009-02-16, 01:47:05,VALID,1000.93,VALID,0,VALID,92.8525,VALID,0,VALID,22.3178,VALID,50,VALID,0,
2009-02-16, 01:48:05,VALID,1000.9,VALID,0,VALID,92.9593,VALID,0,VALID,22.2771,VALID,50,VALID,0.09375,
2009-02-16, 01:49:05,VALID,1000.91,VALID,0,VALID,92.8372,VALID,0,VALID,22.2983,VALID,101,VALID,0.554297,
2009-02-16, 01:50:05,VALID,1000.85,VALID,0,VALID,92.7457,VALID,0,VALID,22.3178,VALID,119,VALID,0.662109,
2009-02-16, 01:51:05,VALID,1000.87,VALID,0,VALID,92.6388,VALID,0,VALID,22.2966,VALID,118,VALID,0.311328,
2009-02-16, 01:52:05,VALID,1000.87,VALID,0,VALID,92.7685,VALID,0,VALID,22.3178,VALID,118,VALID,0.496875,
2009-02-16, 01:53:05,VALID,1000.86,VALID,0,VALID,92.6541,VALID,0,VALID,22.3373,VALID,118,VALID,0.285937,
2009-02-16, 01:54:05,VALID,1000.85,VALID,0,VALID,92.7685,VALID,0,VALID,22.3356,VALID,118,VALID,0.0101562,
2009-02-16, 01:55:05,VALID,1000.86,VALID,0,VALID,92.7685,VALID,0,VALID,22.3373,VALID,118,VALID,0.0957031,
2009-02-16, 01:56:05,VALID,1000.84,VALID,0,VALID,92.1734,VALID,0,VALID,22.3373,VALID,118,VALID,0.512891,
2009-02-16, 01:57:05,VALID,1000.83,VALID,0,VALID,92.6617,VALID,0,VALID,22.3373,VALID,118,VALID,0.523047,
2009-02-16, 01:58:05,VALID,1000.8,VALID,0,VALID,92.9898,VALID,0,VALID,22.3763,VALID,118,VALID,0.461328,
2009-02-16, 01:59:05,VALID,1000.78,VALID,0,VALID,93.0661,VALID,0,VALID,22.4153,VALID,118,VALID,0.389844,
2009-02-16, 02:00:05,VALID,1000.74,VALID,0,VALID,92.9364,VALID,0,VALID,22.4348,VALID,117,VALID,0.579687,
2009-02-16, 02:01:05,VALID,1000.72,VALID,0,VALID,92.9517,VALID,0,VALID,22.4348,VALID,115,VALID,0.495703,
2009-02-16, 02:02:05,VALID,1000.73,VALID,0,VALID,92.8754,VALID,0,VALID,22.4153,VALID,115,VALID,0.537109,
2009-02-16, 02:03:05,VALID,1000.69,VALID,0,VALID,92.9517,VALID,0,VALID,22.4348,VALID,115,VALID,0.544141,
2009-02-16, 02:04:05,VALID,1000.67,VALID,0,VALID,93.0661,VALID,0,VALID,22.4348,VALID,99,VALID,0.472656,
2009-02-16, 02:05:05,VALID,1000.67,VALID,0,VALID,93.0203,VALID,0,VALID,22.4348,VALID,98,VALID,0.459375,
2009-02-16, 02:06:05,VALID,1000.64,VALID,0,VALID,92.9517,VALID,0,VALID,22.4153,VALID,87,VALID,0.569141,
2009-02-16, 02:07:05,VALID,1000.62,VALID,0,VALID,92.9898,VALID,0,VALID,22.4153,VALID,72,VALID,0.613281,
2009-02-16, 02:08:05,VALID,1000.63,VALID,0,VALID,93.1271,VALID,0,VALID,22.4153,VALID,65,VALID,0.689844,
2009-02-16, 02:09:05,VALID,1000.61,VALID,0,VALID,92.9669,VALID,0,VALID,22.4153,VALID,64,VALID,0.721094,
2009-02-16, 02:10:05,VALID,1000.62,VALID,0,VALID,93.0661,VALID,0,VALID,22.3958,VALID,62,VALID,0.587109,
2009-02-16, 02:11:05,VALID,1000.63,VALID,0,VALID,93.1195,VALID,0,VALID,22.3746,VALID,42,VALID,0.614844,
2009-02-16, 02:12:05,VALID,1000.65,VALID,0,VALID,93.1653,VALID,0,VALID,22.3763,VALID,24,VALID,0.815234,
2009-02-16, 02:13:05,VALID,1000.69,VALID,0,VALID,93.0203,VALID,0,VALID,22.3958,VALID,354,VALID,1.79922,
2009-02-16, 02:14:05,VALID,1000.75,VALID,0,VALID,92.8754,VALID,0,VALID,22.3568,VALID,339,VALID,2.21016,
2009-02-16, 02:15:05,VALID,1000.8,VALID,0,VALID,92.9974,VALID,0,VALID,22.3551,VALID,333,VALID,2.19336,
2009-02-16, 02:16:05,VALID,1000.77,VALID,0,VALID,92.6388,VALID,0,VALID,22.3178,VALID,342,VALID,1.91562,
2009-02-16, 02:17:05,VALID,1000.74,VALID,0,VALID,92.8448,VALID,0,VALID,22.2983,VALID,3,VALID,1.69531,
2009-02-16, 02:18:05,VALID,1000.72,VALID,0,VALID,92.5015,VALID,0,VALID,22.2592,VALID,2,VALID,1.60352,
2009-02-16, 02:19:05,VALID,1000.68,VALID,0,VALID,91.6317,VALID,0,VALID,22.2202,VALID,356,VALID,1.53633,
2009-02-16, 02:20:05,VALID,1000.68,VALID,0,VALID,91.8911,VALID,0,VALID,22.2592,VALID,347,VALID,1.04492,
2009-02-16, 02:21:05,VALID,1000.66,VALID,0,VALID,91.7614,VALID,0,VALID,22.2592,VALID,3,VALID,1.16523,
2009-02-16, 02:22:05,VALID,1000.63,VALID,0,VALID,91.6699,VALID,0,VALID,22.2788,VALID,330,VALID,0.544141,
2009-02-16, 02:23:05,VALID,1000.58,VALID,0,VALID,91.5936,VALID,0,VALID,22.2983,VALID,307,VALID,0.317187,
2009-02-16, 02:24:05,VALID,1000.59,VALID,0,VALID,91.4334,VALID,0,VALID,22.3373,VALID,306,VALID,0.0722656,
2009-02-16, 02:25:05,VALID,1000.59,VALID,0,VALID,91.1129,VALID,0,VALID,22.3373,VALID,2,VALID,0.811719,
2009-02-16, 02:26:04,VALID,1000.61,VALID,0,VALID,91.3418,VALID,0,VALID,22.3568,VALID,28,VALID,1.06445,
2009-02-16, 02:27:04,VALID,1000.58,VALID,0,VALID,91.4486,VALID,0,VALID,22.3763,VALID,30,VALID,1.22695,
2009-02-16, 02:28:04,VALID,1000.61,VALID,0,VALID,91.9674,VALID,0,VALID,22.4365,VALID,49,VALID,1.05234,
2009-02-16, 02:29:04,VALID,1000.64,VALID,0,VALID,92.3108,VALID,0,VALID,22.4348,VALID,28,VALID,0.924609,
2009-02-16, 02:30:04,VALID,1000.67,VALID,0,VALID,92.3108,VALID,0,VALID,22.4348,VALID,27,VALID,0.933594,
2009-02-16, 02:31:04,VALID,1000.69,VALID,0,VALID,92.5244,VALID,0,VALID,22.4348,VALID,24,VALID,0.864844,
2009-02-16, 02:32:04,VALID,1000.75,VALID,0,VALID,92.6312,VALID,0,VALID,22.4348,VALID,10,VALID,0.673437,
2009-02-16, 02:33:04,VALID,1000.79,VALID,0,VALID,92.7075,VALID,0,VALID,22.4348,VALID,352,VALID,0.390234,
2009-02-16, 02:34:04,VALID,1000.8,VALID,0,VALID,92.7304,VALID,0,VALID,22.4348,VALID,289,VALID,0.536719,
2009-02-16, 02:35:04,VALID,1000.83,VALID,0,VALID,92.8448,VALID,0,VALID,22.4543,VALID,324,VALID,0.525781,
2009-02-16, 02:36:04,VALID,1000.83,VALID,0,VALID,92.8601,VALID,0,VALID,22.4543,VALID,315,VALID,0.822656,
2009-02-16, 02:37:04,VALID,1000.79,VALID,0,VALID,92.5626,VALID,0,VALID,22.456,VALID,337,VALID,0.561328,
2009-02-16, 02:38:04,VALID,1000.82,VALID,0,VALID,92.5473,VALID,0,VALID,22.4348,VALID,329,VALID,0.512891,
2009-02-16, 02:39:04,VALID,1000.84,VALID,0,VALID,92.41,VALID,0,VALID,22.4153,VALID,313,VALID,0.366797,
2009-02-16, 02:40:04,VALID,1000.93,VALID,0,VALID,91.998,VALID,0,VALID,22.4153,VALID,234,VALID,2.02344,
2009-02-16, 02:41:04,VALID,1000.99,VALID,0,VALID,92.3108,VALID,0,VALID,22.4543,VALID,259,VALID,1.13242,
2009-02-16, 02:42:04,VALID,1000.99,VALID,0.5,VALID,92.3947,VALID,0,VALID,22.4543,VALID,279,VALID,2.31523,
2009-02-16, 02:43:04,VALID,1001.02,VALID,0.5,VALID,92.8525,VALID,0.112286,VALID,22.4721,VALID,306,VALID,1.57109,
2009-02-16, 02:44:04,VALID,1001.01,VALID,0,VALID,93.7604,VALID,0,VALID,22.6299,VALID,301,VALID,5.52187,
2009-02-16, 02:45:04,VALID,1001.18,VALID,0.5,VALID,93.501,VALID,0,VALID,22.7469,VALID,270,VALID,3.46602,
2009-02-16, 02:46:04,VALID,1001.11,VALID,0.5,VALID,93.4857,VALID,0,VALID,22.7469,VALID,297,VALID,1.8207,
2009-02-16, 02:47:04,VALID,1001.12,VALID,0.5,VALID,93.5315,VALID,0,VALID,22.7664,VALID,308,VALID,4.16484,
2009-02-16, 02:48:04,VALID,1001.02,VALID,0.5,VALID,93.5086,VALID,0,VALID,22.7664,VALID,288,VALID,3.78711,
2009-02-16, 02:49:04,VALID,1001.05,VALID,0,VALID,93.6612,VALID,0,VALID,22.7664,VALID,258,VALID,5.5625,
2009-02-16, 02:50:04,VALID,1001,VALID,0.5,VALID,93.8138,VALID,0,VALID,22.7664,VALID,263,VALID,2.49258,
2009-02-16, 02:51:04,VALID,1001.12,VALID,0,VALID,93.6688,VALID,0,VALID,22.7469,VALID,275,VALID,5.62734,
2009-02-16, 02:52:04,VALID,1001.17,VALID,0,VALID,93.7757,VALID,0,VALID,22.7469,VALID,270,VALID,3.30234,
2009-02-16, 02:53:04,VALID,1001.16,VALID,0.5,VALID,93.0356,VALID,0.112286,VALID,22.6689,VALID,265,VALID,5.45742,
2009-02-16, 02:54:04,VALID,1001.07,VALID,0,VALID,93.2568,VALID,0,VALID,22.6689,VALID,250,VALID,3.34492,
2009-02-16, 02:55:04,VALID,1001.11,VALID,0,VALID,93.5315,VALID,0,VALID,22.6494,VALID,294,VALID,2.96992,
2009-02-16, 02:56:04,VALID,1001.12,VALID,0,VALID,93.913,VALID,0,VALID,22.6494,VALID,279,VALID,3.39414,
2009-02-16, 02:57:04,VALID,1001.08,VALID,0.5,VALID,94.0808,VALID,0,VALID,22.6299,VALID,248,VALID,2.625,
2009-02-16, 02:58:04,VALID,1001.09,VALID,0.5,VALID,94.3097,VALID,0,VALID,22.6282,VALID,303,VALID,3.05273,
2009-02-16, 02:59:04,VALID,1001.17,VALID,0,VALID,94.4394,VALID,0,VALID,22.6494,VALID,273,VALID,1.47773,
2009-02-16, 03:00:04,VALID,1001.15,VALID,0.5,VALID,94.4242,VALID,0,VALID,22.5909,VALID,248,VALID,3.67266,
2009-02-16, 03:01:04,VALID,1001.3,VALID,0.5,VALID,94.5234,VALID,0,VALID,22.5909,VALID,269,VALID,4.92383,
2009-02-16, 03:02:04,VALID,1001.28,VALID,0.5,VALID,94.5768,VALID,0,VALID,22.6104,VALID,262,VALID,1.95195,
2009-02-16, 03:03:04,VALID,1001.43,VALID,0.5,VALID,94.5081,VALID,0,VALID,22.5714,VALID,259,VALID,4.08984,
2009-02-16, 03:04:04,VALID,1001.24,VALID,0,VALID,94.119,VALID,0,VALID,22.5128,VALID,250,VALID,3.36992,
2009-02-16, 03:05:04,VALID,1001.25,VALID,0.5,VALID,94.1419,VALID,0,VALID,22.4543,VALID,263,VALID,4.55898,
2009-02-16, 03:06:04,VALID,1001.34,VALID,0,VALID,94.3555,VALID,0,VALID,22.4738,VALID,241,VALID,2.525,
2009-02-16, 03:07:04,VALID,1001.35,VALID,0,VALID,94.47,VALID,0,VALID,22.4348,VALID,266,VALID,3.43359,
2009-02-16, 03:08:04,VALID,1001.36,VALID,0.5,VALID,94.6226,VALID,0,VALID,22.4348,VALID,270,VALID,3.27852,
2009-02-16, 03:09:04,VALID,1001.42,VALID,0,VALID,94.7217,VALID,0,VALID,22.4348,VALID,276,VALID,2.16836,
2009-02-16, 03:10:04,VALID,1001.38,VALID,0.5,VALID,94.8285,VALID,0,VALID,22.4348,VALID,264,VALID,3.63555,
2009-02-16, 03:11:04,VALID,1001.43,VALID,0.5,VALID,94.9125,VALID,0,VALID,22.4348,VALID,256,VALID,3.14609,
2009-02-16, 03:12:04,VALID,1001.38,VALID,0.5,VALID,94.9811,VALID,0,VALID,22.4348,VALID,245,VALID,1.83281,
2009-02-16, 03:13:04,VALID,1001.33,VALID,0,VALID,95.0574,VALID,0,VALID,22.4136,VALID,294,VALID,1.95391,
2009-02-16, 03:14:04,VALID,1001.31,VALID,0.5,VALID,95.088,VALID,0,VALID,22.4543,VALID,280,VALID,1.18203,
2009-02-16, 03:15:04,VALID,1001.36,VALID,0,VALID,95.1643,VALID,0,VALID,22.4543,VALID,280,VALID,2.81875,
2009-02-16, 03:16:04,VALID,1001.35,VALID,0.5,VALID,95.1719,VALID,0,VALID,22.4153,VALID,259,VALID,1.39453,
2009-02-16, 03:17:04,VALID,1001.33,VALID,0,VALID,95.1566,VALID,0,VALID,22.4153,VALID,293,VALID,4.31953,
2009-02-16, 03:18:04,VALID,1001.4,VALID,0.5,VALID,95.1948,VALID,0.112286,VALID,22.4153,VALID,242,VALID,1.8168,
2009-02-16, 03:19:04,VALID,1001.41,VALID,0,VALID,95.1871,VALID,0,VALID,22.4153,VALID,222,VALID,1.73477,
2009-02-16, 03:20:04,VALID,1001.38,VALID,0.5,VALID,95.1185,VALID,0,VALID,22.3958,VALID,253,VALID,2.50898,
2009-02-16, 03:21:04,VALID,1001.37,VALID,0.5,VALID,95.1337,VALID,0,VALID,22.4153,VALID,277,VALID,2.30039,
2009-02-16, 03:22:04,VALID,1001.36,VALID,0,VALID,95.1948,VALID,0,VALID,22.3941,VALID,272,VALID,3.05664,
2009-02-16, 03:23:04,VALID,1001.37,VALID,0.5,VALID,95.2177,VALID,0,VALID,22.4348,VALID,258,VALID,1.97422,
2009-02-16, 03:24:04,VALID,1001.35,VALID,0.5,VALID,95.2634,VALID,0,VALID,22.4331,VALID,265,VALID,2.48789,
2009-02-16, 03:25:04,VALID,1001.34,VALID,0.5,VALID,95.294,VALID,0,VALID,22.4543,VALID,269,VALID,1.39531,
2009-02-16, 03:26:04,VALID,1001.29,VALID,0.5,VALID,95.3016,VALID,0,VALID,22.4543,VALID,274,VALID,0.982813,
2009-02-16, 03:27:04,VALID,1001.32,VALID,0.5,VALID,95.355,VALID,0,VALID,22.4738,VALID,244,VALID,1.85,
2009-02-16, 03:28:04,VALID,1001.29,VALID,0.5,VALID,95.3855,VALID,0,VALID,22.4543,VALID,245,VALID,1.57422,
2009-02-16, 03:29:04,VALID,1001.36,VALID,0,VALID,95.4465,VALID,0,VALID,22.4738,VALID,312,VALID,2.51445,
2009-02-16, 03:30:04,VALID,1001.38,VALID,1,VALID,95.4618,VALID,0,VALID,22.4933,VALID,274,VALID,3.52539,
2009-02-16, 03:31:04,VALID,1001.38,VALID,0,VALID,95.5,VALID,0,VALID,22.4738,VALID,288,VALID,2.5043,
2009-02-16, 03:32:04,VALID,1001.32,VALID,0.5,VALID,95.3779,VALID,0,VALID,22.4543,VALID,247,VALID,3.60273,
2009-02-16, 03:33:04,VALID,1001.32,VALID,0.5,VALID,95.3397,VALID,0,VALID,22.4153,VALID,283,VALID,2.56289,
2009-02-16, 03:34:04,VALID,1001.34,VALID,0,VALID,95.3397,VALID,0,VALID,22.3746,VALID,288,VALID,3.0793,
2009-02-16, 03:35:04,VALID,1001.36,VALID,0.5,VALID,95.355,VALID,0,VALID,22.3551,VALID,294,VALID,2.14141,
2009-02-16, 03:36:04,VALID,1001.35,VALID,0.5,VALID,95.3703,VALID,0,VALID,22.3763,VALID,280,VALID,2.50039,
2009-02-16, 03:37:04,VALID,1001.47,VALID,0.5,VALID,95.4084,VALID,0,VALID,22.3568,VALID,267,VALID,2.77031,
2009-02-16, 03:38:04,VALID,1001.42,VALID,0,VALID,95.4313,VALID,0,VALID,22.3763,VALID,322,VALID,0.925781,
2009-02-16, 03:39:04,VALID,1001.49,VALID,0.5,VALID,95.5,VALID,0,VALID,22.3763,VALID,267,VALID,2.03789,
2009-02-16, 03:40:04,VALID,1001.39,VALID,0,VALID,95.3321,VALID,0,VALID,22.3161,VALID,180,VALID,3.7418,
2009-02-16, 03:41:04,VALID,1001.49,VALID,0,VALID,95.2711,VALID,0,VALID,22.2983,VALID,273,VALID,2.33359,
2009-02-16, 03:42:04,VALID,1001.47,VALID,0.5,VALID,95.355,VALID,0,VALID,22.2983,VALID,302,VALID,1.69922,
2009-02-16, 03:43:04,VALID,1001.55,VALID,0.5,VALID,95.4618,VALID,0,VALID,22.3373,VALID,290,VALID,2.07617,
2009-02-16, 03:44:04,VALID,1001.53,VALID,0.5,VALID,95.416,VALID,0,VALID,22.3373,VALID,265,VALID,1.87188,
2009-02-16, 03:45:04,VALID,1001.51,VALID,0,VALID,95.4465,VALID,0,VALID,22.3568,VALID,253,VALID,1.48906,